| time (UTC) | temp F | wind direction | speed knots | gust knots | rain 1hr in | rain 24hr in | rain mn in | humidity % | barometer mb |
| 20260504034003 | 50 | 186 | 0.0 | 1.7 | 0.00 | 0.00 | 0.00 | 52 | 1013.4 |
| 20260504033504 | 51 | 241 | 0.9 | 2.6 | 0.00 | 0.00 | 0.00 | 51 | 1013.3 |
| 20260504033004 | 51 | 248 | 0.9 | 2.6 | 0.00 | 0.00 | 0.00 | 51 | 1013.4 |
| 20260504032503 | 51 | 239 | 0.9 | 2.6 | 0.00 | 0.00 | 0.00 | 51 | 1013.3 |
| 20260504032004 | 51 | 213 | 0.0 | 0.9 | 0.00 | 0.00 | 0.00 | 51 | 1013.3 |
| 20260504031503 | 51 | 214 | 0.0 | 1.7 | 0.00 | 0.00 | 0.00 | 51 | 1013.3 |
| 20260504031003 | 51 | 208 | 0.0 | 4.3 | 0.00 | 0.00 | 0.00 | 51 | 1013.3 |
| 20260504030504 | 51 | 209 | 0.9 | 4.3 | 0.00 | 0.00 | 0.00 | 51 | 1013.2 |
| 20260504030003 | 51 | 211 | 0.0 | 2.6 | 0.00 | 0.00 | 0.00 | 51 | 1013.2 |
| 20260504025504 | 51 | 221 | 0.0 | 2.6 | 0.00 | 0.00 | 0.00 | 51 | 1013.2 |
| 20260504025003 | 51 | 233 | 0.0 | 5.2 | 0.00 | 0.00 | 0.00 | 51 | 1013.2 |
| 20260504024503 | 51 | 219 | 0.0 | 5.2 | 0.00 | 0.00 | 0.00 | 51 | 1013.2 |
| 20260504024003 | 51 | 205 | 0.0 | 0.9 | 0.00 | 0.00 | 0.00 | 52 | 1013.2 |
| 20260504023504 | 51 | 211 | 0.9 | 2.6 | 0.00 | 0.00 | 0.00 | 51 | 1013.2 |
| 20260504023003 | 51 | 255 | 0.9 | 1.7 | 0.00 | 0.00 | 0.00 | 52 | 1013.2 |
| 20260504022504 | 51 | 255 | 0.9 | 2.6 | 0.00 | 0.00 | 0.00 | 52 | 1013.2 |
| 20260504022003 | 50 | 203 | 0.9 | 4.3 | 0.00 | 0.00 | 0.00 | 52 | 1013.3 |
| 20260504021504 | 50 | 210 | 0.0 | 2.6 | 0.00 | 0.00 | 0.00 | 52 | 1013.2 |
| 20260504021003 | 50 | 202 | 0.0 | 1.7 | 0.00 | 0.00 | 0.00 | 52 | 1013.2 |
| 20260504020504 | 50 | 204 | 0.0 | 1.7 | 0.00 | 0.00 | 0.00 | 52 | 1013.2 |
| 20260504020004 | 50 | 205 | 0.0 | 1.7 | 0.00 | 0.00 | 0.00 | 53 | 1013.2 |
| 20260504015503 | 50 | 205 | 0.0 | 0.0 | 0.00 | 0.00 | 0.00 | 53 | 1013.2 |
| 20260504015004 | 51 | 205 | 0.0 | 0.0 | 0.00 | 0.00 | 0.00 | 53 | 1013.2 |
| 20260504014503 | 51 | 206 | 0.0 | 1.7 | 0.00 | 0.00 | 0.00 | 52 | 1013.2 |
| 20260504014003 | 51 | 207 | 0.9 | 2.6 | 0.00 | 0.00 | 0.00 | 51 | 1013.0 |
| 20260504013504 | 52 | 213 | 0.9 | 2.6 | 0.00 | 0.00 | 0.00 | 50 | 1013.1 |
| 20260504013003 | 52 | 245 | 0.0 | 0.9 | 0.00 | 0.00 | 0.00 | 49 | 1013.0 |
| 20260504012503 | 52 | 238 | 0.0 | 0.0 | 0.00 | 0.00 | 0.00 | 48 | 1012.9 |
| 20260504012004 | 53 | 237 | 0.0 | 0.0 | 0.00 | 0.00 | 0.00 | 48 | 1012.9 |
| 20260504011503 | 53 | 237 | 0.0 | 1.7 | 0.00 | 0.00 | 0.00 | 47 | 1012.8 |
| 20260504011004 | 53 | 243 | 0.0 | 0.9 | 0.00 | 0.00 | 0.00 | 47 | 1012.8 |
| 20260504010503 | 53 | 243 | 0.0 | 0.9 | 0.00 | 0.00 | 0.00 | 47 | 1012.7 |
| 20260504010003 | 53 | 243 | 0.9 | 2.6 | 0.00 | 0.00 | 0.00 | 46 | 1012.6 |
| 20260504005504 | 53 | 243 | 0.0 | 1.7 | 0.00 | 0.00 | 0.00 | 46 | 1012.6 |
| 20260504005004 | 53 | 243 | 0.0 | 0.0 | 0.00 | 0.00 | 0.00 | 46 | 1012.5 |
| 20260504004503 | 54 | 243 | 0.0 | 0.0 | 0.00 | 0.00 | 0.00 | 45 | 1012.5 |
| 20260504004004 | 54 | 243 | 0.0 | 0.0 | 0.00 | 0.00 | 0.00 | 44 | 1012.4 |
| 20260504003503 | 54 | 243 | 0.0 | 0.0 | 0.00 | 0.00 | 0.00 | 44 | 1012.3 |
| 20260504003004 | 54 | 243 | 0.0 | 0.9 | 0.00 | 0.00 | 0.00 | 43 | 1012.3 |
| 20260504002504 | 55 | 243 | 0.0 | 1.7 | 0.00 | 0.00 | 0.00 | 42 | 1012.3 |
| 20260504002004 | 55 | 243 | 0.0 | 0.9 | 0.00 | 0.00 | 0.00 | 41 | 1012.2 |
| 20260504001504 | 56 | 243 | 0.0 | 0.9 | 0.00 | 0.00 | 0.00 | 40 | 1012.2 |
| 20260504001003 | 56 | 243 | 0.0 | 0.9 | 0.00 | 0.00 | 0.00 | 39 | 1012.1 |
| 20260504000504 | 56 | 243 | 0.0 | 0.0 | 0.00 | 0.00 | 0.00 | 38 | 1012.0 |
| 20260504000004 | 57 | 243 | 0.9 | 1.7 | 0.00 | 0.00 | 0.00 | 37 | 1012.0 |
| 20260503235503 | 57 | 243 | 0.0 | 1.7 | 0.00 | 0.00 | 0.00 | 36 | 1011.9 |
| 20260503235003 | 57 | 243 | 0.0 | 1.7 | 0.00 | 0.00 | 0.00 | 36 | 1011.8 |
| 20260503234504 | 57 | 248 | 0.9 | 4.3 | 0.00 | 0.00 | 0.00 | 36 | 1011.7 |
| 20260503234003 | 58 | 250 | 1.7 | 2.6 | 0.00 | 0.00 | 0.00 | 36 | 1011.6 |
| 20260503233504 | 58 | 240 | 0.9 | 2.6 | 0.00 | 0.00 | 0.00 | 35 | 1011.6 |
| 20260503233003 | 58 | 213 | 1.7 | 4.3 | 0.00 | 0.00 | 0.00 | 34 | 1011.5 |
| 20260503232503 | 58 | 216 | 1.7 | 2.6 | 0.00 | 0.00 | 0.00 | 35 | 1011.7 |
| 20260503232004 | 58 | 238 | 2.6 | 5.2 | 0.00 | 0.00 | 0.00 | 34 | 1011.6 |
| 20260503231503 | 59 | 212 | 1.7 | 4.3 | 0.00 | 0.00 | 0.00 | 34 | 1011.6 |
| 20260503231004 | 59 | 234 | 2.6 | 6.1 | 0.00 | 0.00 | 0.00 | 33 | 1011.6 |
| 20260503230504 | 59 | 255 | 2.6 | 7.8 | 0.00 | 0.00 | 0.00 | 33 | 1011.5 |
| 20260503230003 | 59 | 237 | 2.6 | 6.1 | 0.00 | 0.00 | 0.00 | 32 | 1011.5 |
| 20260503225504 | 59 | 239 | 3.5 | 8.7 | 0.00 | 0.00 | 0.00 | 32 | 1011.5 |
| 20260503225004 | 60 | 252 | 1.7 | 6.1 | 0.00 | 0.00 | 0.00 | 32 | 1011.4 |
| 20260503224503 | 60 | 258 | 1.7 | 7.0 | 0.00 | 0.00 | 0.00 | 32 | 1011.4 |
| 20260503224004 | 60 | 276 | 2.6 | 10.4 | 0.00 | 0.00 | 0.00 | 31 | 1011.4 |
| 20260503223503 | 60 | 301 | 1.7 | 5.2 | 0.00 | 0.00 | 0.00 | 32 | 1011.4 |
| 20260503223004 | 60 | 259 | 1.7 | 6.1 | 0.00 | 0.00 | 0.00 | 32 | 1011.3 |
| 20260503222503 | 60 | 257 | 1.7 | 8.7 | 0.00 | 0.00 | 0.00 | 30 | 1011.4 |
| 20260503222003 | 60 | 285 | 3.5 | 10.4 | 0.00 | 0.00 | 0.00 | 31 | 1011.3 |
| 20260503221504 | 60 | 248 | 2.6 | 10.4 | 0.00 | 0.00 | 0.00 | 33 | 1011.3 |
| 20260503221003 | 60 | 283 | 4.3 | 12.2 | 0.00 | 0.00 | 0.00 | 31 | 1011.4 |
| 20260503220504 | 60 | 234 | 2.6 | 12.2 | 0.00 | 0.00 | 0.00 | 31 | 1011.5 |
| 20260503220004 | 61 | 266 | 3.5 | 11.3 | 0.00 | 0.00 | 0.00 | 31 | 1011.4 |
| 20260503215504 | 61 | 306 | 3.5 | 10.4 | 0.00 | 0.00 | 0.00 | 31 | 1011.3 |
| 20260503215003 | 61 | 212 | 1.7 | 6.1 | 0.00 | 0.00 | 0.00 | 33 | 1011.4 |
| 20260503214504 | 61 | 228 | 4.3 | 10.4 | 0.00 | 0.00 | 0.00 | 31 | 1011.2 |
| 20260503214004 | 61 | 225 | 4.3 | 11.3 | 0.00 | 0.00 | 0.00 | 30 | 1011.1 |
| 20260503213503 | 61 | 268 | 3.5 | 13.0 | 0.00 | 0.00 | 0.00 | 31 | 1011.3 |
| 20260503213004 | 60 | 300 | 4.3 | 10.4 | 0.00 | 0.00 | 0.00 | 31 | 1011.3 |
| 20260503212503 | 61 | 299 | 5.2 | 12.2 | 0.00 | 0.00 | 0.00 | 31 | 1011.2 |
| 20260503212004 | 61 | 205 | 3.5 | 11.3 | 0.00 | 0.00 | 0.00 | 31 | 1011.2 |
| 20260503211504 | 61 | 253 | 2.6 | 10.4 | 0.00 | 0.00 | 0.00 | 32 | 1011.2 |
| 20260503211003 | 61 | 276 | 3.5 | 12.2 | 0.00 | 0.00 | 0.00 | 32 | 1011.2 |
| 20260503210504 | 61 | 294 | 2.6 | 8.7 | 0.00 | 0.00 | 0.00 | 33 | 1011.2 |
| 20260503210003 | 61 | 256 | 3.5 | 10.4 | 0.00 | 0.00 | 0.00 | 33 | 1011.1 |
| 20260503205504 | 61 | 267 | 5.2 | 10.4 | 0.00 | 0.00 | 0.00 | 32 | 1011.2 |
| 20260503205004 | 61 | 289 | 2.6 | 11.3 | 0.00 | 0.00 | 0.00 | 31 | 1011.1 |
| 20260503204504 | 61 | 280 | 4.3 | 11.3 | 0.00 | 0.00 | 0.00 | 32 | 1011.0 |
| 20260503204004 | 61 | 284 | 4.3 | 12.2 | 0.00 | 0.00 | 0.00 | 31 | 1011.0 |
| 20260503203503 | 62 | 289 | 3.5 | 11.3 | 0.00 | 0.00 | 0.00 | 32 | 1011.0 |
| 20260503203003 | 62 | 279 | 5.2 | 10.4 | 0.00 | 0.00 | 0.00 | 32 | 1011.0 |
| 20260503202504 | 62 | 280 | 5.2 | 11.3 | 0.00 | 0.00 | 0.00 | 34 | 1011.0 |
| 20260503202003 | 62 | 255 | 3.5 | 7.8 | 0.00 | 0.00 | 0.00 | 32 | 1011.1 |
| 20260503201504 | 62 | 321 | 3.5 | 13.9 | 0.00 | 0.00 | 0.00 | 32 | 1011.1 |
| 20260503201003 | 61 | 289 | 2.6 | 10.4 | 0.00 | 0.00 | 0.00 | 33 | 1011.2 |
| 20260503200503 | 61 | 267 | 4.3 | 11.3 | 0.00 | 0.00 | 0.00 | 32 | 1011.2 |
| 20260503200003 | 61 | 274 | 4.3 | 11.3 | 0.00 | 0.00 | 0.00 | 32 | 1011.3 |
| 20260503195503 | 62 | 266 | 4.3 | 10.4 | 0.00 | 0.00 | 0.00 | 33 | 1011.2 |
| 20260503195004 | 60 | 285 | 4.3 | 10.4 | 0.00 | 0.00 | 0.00 | 35 | 1011.2 |
| 20260503194503 | 60 | 257 | 4.3 | 12.2 | 0.00 | 0.00 | 0.00 | 35 | 1011.3 |
| 20260503194004 | 60 | 218 | 6.1 | 17.4 | 0.00 | 0.00 | 0.00 | 34 | 1011.2 |
| 20260503193504 | 61 | 235 | 3.5 | 13.0 | 0.00 | 0.00 | 0.00 | 35 | 1011.3 |
| 20260503193003 | 60 | 286 | 2.6 | 8.7 | 0.00 | 0.00 | 0.00 | 37 | 1011.4 |
| 20260503192504 | 60 | 223 | 5.2 | 13.0 | 0.00 | 0.00 | 0.00 | 36 | 1011.6 |
| 20260503192004 | 59 | 256 | 2.6 | 8.7 | 0.00 | 0.00 | 0.00 | 36 | 1011.8 |
| 20260503191503 | 59 | 250 | 6.1 | 13.9 | 0.00 | 0.00 | 0.00 | 36 | 1011.8 |
| 20260503191004 | 59 | 252 | 4.3 | 13.0 | 0.00 | 0.00 | 0.00 | 36 | 1011.8 |
| 20260503190504 | 60 | 237 | 3.5 | 20.0 | 0.00 | 0.00 | 0.00 | 36 | 1011.8 |
| 20260503190004 | 60 | 283 | 6.1 | 15.6 | 0.00 | 0.00 | 0.00 | 37 | 1011.7 |
| 20260503185503 | 60 | 270 | 5.2 | 12.2 | 0.00 | 0.00 | 0.00 | 36 | 1011.9 |
| 20260503185004 | 59 | 232 | 5.2 | 10.4 | 0.00 | 0.00 | 0.00 | 38 | 1011.9 |
| 20260503184503 | 58 | 269 | 3.5 | 13.9 | 0.00 | 0.00 | 0.00 | 40 | 1011.9 |
| 20260503184004 | 59 | 267 | 4.3 | 13.9 | 0.00 | 0.00 | 0.00 | 36 | 1011.9 |
| 20260503183503 | 59 | 283 | 6.1 | 13.0 | 0.00 | 0.00 | 0.00 | 36 | 1012.0 |
| 20260503183004 | 58 | 250 | 5.2 | 10.4 | 0.00 | 0.00 | 0.00 | 40 | 1012.0 |
| 20260503182503 | 58 | 290 | 5.2 | 12.2 | 0.00 | 0.00 | 0.00 | 37 | 1012.1 |
| 20260503182004 | 57 | 244 | 5.2 | 12.2 | 0.00 | 0.00 | 0.00 | 39 | 1012.0 |
| 20260503181505 | 58 | 270 | 4.3 | 11.3 | 0.00 | 0.00 | 0.00 | 37 | 1012.0 |
| 20260503181004 | 58 | 223 | 6.1 | 13.9 | 0.00 | 0.00 | 0.00 | 40 | 1012.0 |
| 20260503180504 | 58 | 243 | 4.3 | 10.4 | 0.00 | 0.00 | 0.00 | 40 | 1011.9 |
| 20260503180004 | 58 | 303 | 6.1 | 13.0 | 0.00 | 0.00 | 0.00 | 39 | 1012.1 |
| 20260503175504 | 58 | 351 | 5.2 | 13.9 | 0.00 | 0.00 | 0.00 | 37 | 1011.9 |
| 20260503175003 | 59 | 275 | 2.6 | 7.8 | 0.00 | 0.00 | 0.00 | 39 | 1012.2 |
| 20260503174503 | 58 | 287 | 2.6 | 13.9 | 0.00 | 0.00 | 0.00 | 40 | 1012.2 |
| 20260503174004 | 56 | 262 | 3.5 | 10.4 | 0.00 | 0.00 | 0.00 | 40 | 1012.1 |
| 20260503173503 | 56 | 252 | 6.1 | 15.6 | 0.00 | 0.00 | 0.00 | 38 | 1012.1 |
| 20260503173004 | 57 | 269 | 7.0 | 13.9 | 0.00 | 0.00 | 0.00 | 38 | 1012.1 |
| 20260503172504 | 58 | 303 | 4.3 | 12.2 | 0.00 | 0.00 | 0.00 | 41 | 1012.1 |
| 20260503172004 | 58 | 266 | 3.5 | 11.3 | 0.00 | 0.00 | 0.00 | 39 | 1012.0 |
| 20260503171503 | 57 | 301 | 4.3 | 13.9 | 0.00 | 0.00 | 0.00 | 39 | 1012.0 |
| 20260503171003 | 57 | 284 | 4.3 | 8.7 | 0.00 | 0.00 | 0.00 | 41 | 1012.2 |
| 20260503170504 | 56 | 253 | 4.3 | 11.3 | 0.00 | 0.00 | 0.00 | 39 | 1012.2 |
| 20260503151003 | 56 | 291 | 1.7 | 8.7 | 0.00 | 0.00 | 0.00 | 47 | 1012.5 |
| 20260503150504 | 54 | 265 | 3.5 | 13.0 | 0.00 | 0.00 | 0.00 | 47 | 1012.4 |
| 20260503131004 | 52 | 316 | 2.6 | 7.0 | 0.00 | 0.00 | 0.00 | 51 | 1012.4 |
| 20260503130504 | 52 | 311 | 3.5 | 8.7 | 0.00 | 0.00 | 0.00 | 52 | 1012.3 |
| 20260503110503 | 48 | 242 | 0.9 | 4.3 | 0.00 | 0.00 | 0.00 | 57 | 1011.4 |
| 20260503090503 | 47 | 298 | 2.6 | 6.1 | 0.00 | 0.00 | 0.00 | 54 | 1009.9 |
| 20260503081503 | 48 | 319 | 2.6 | 7.0 | 0.00 | 0.00 | 0.00 | 55 | 1009.7 |
| 20260503081004 | 48 | 2 | 1.7 | 6.1 | 0.00 | 0.00 | 0.00 | 55 | 1009.7 |
| 20260503080503 | 48 | 320 | 1.7 | 4.3 | 0.00 | 0.00 | 0.00 | 56 | 1009.7 |
| 20260503072503 | 49 | 316 | 0.9 | 2.6 | 0.00 | 0.00 | 0.00 | 53 | 1009.9 |
| 20260503072004 | 50 | 310 | 0.9 | 2.6 | 0.00 | 0.00 | 0.00 | 53 | 1009.9 |
| 20260503071503 | 50 | 313 | 1.7 | 2.6 | 0.00 | 0.00 | 0.00 | 52 | 1009.8 |
| 20260503071004 | 50 | 317 | 1.7 | 4.3 | 0.00 | 0.00 | 0.00 | 52 | 1009.9 |
| 20260503070504 | 50 | 322 | 2.6 | 8.7 | 0.00 | 0.00 | 0.00 | 52 | 1009.9 |
| 20260503055003 | 51 | 358 | 0.9 | 2.6 | 0.00 | 0.00 | 0.00 | 54 | 1010.1 |
| 20260503054504 | 52 | 314 | 1.7 | 4.3 | 0.00 | 0.00 | 0.00 | 54 | 1010.1 |
| 20260503054004 | 52 | 296 | 0.9 | 6.1 | 0.00 | 0.00 | 0.00 | 53 | 1010.2 |
| 20260503053503 | 51 | 295 | 1.7 | 2.6 | 0.00 | 0.00 | 0.00 | 54 | 1010.1 |
| 20260503053004 | 51 | 328 | 1.7 | 7.0 | 0.00 | 0.00 | 0.00 | 55 | 1010.1 |
| 20260503052503 | 51 | 297 | 0.9 | 4.3 | 0.00 | 0.00 | 0.00 | 57 | 1010.1 |
| 20260503052004 | 51 | 341 | 1.7 | 2.6 | 0.00 | 0.00 | 0.00 | 56 | 1010.2 |
| 20260503051503 | 52 | 296 | 0.9 | 2.6 | 0.00 | 0.00 | 0.00 | 56 | 1010.2 |
| 20260503050504 | 51 | 321 | 1.7 | 2.6 | 0.00 | 0.00 | 0.00 | 56 | 1010.2 |
| 20260503050004 | 51 | 319 | 0.9 | 2.6 | 0.00 | 0.00 | 0.00 | 57 | 1010.4 |
| 20260503045503 | 51 | 331 | 1.7 | 4.3 | 0.00 | 0.00 | 0.00 | 58 | 1010.4 |
| 20260503045003 | 51 | 340 | 1.7 | 2.6 | 0.00 | 0.00 | 0.00 | 59 | 1010.4 |
| 20260503044504 | 51 | 300 | 0.9 | 2.6 | 0.00 | 0.00 | 0.00 | 60 | 1010.6 |
| 20260503044003 | 51 | 307 | 2.6 | 4.3 | 0.00 | 0.00 | 0.00 | 62 | 1010.7 |
| 20260503043504 | 51 | 300 | 0.9 | 2.6 | 0.00 | 0.00 | 0.00 | 63 | 1010.7 |
| 20260503043004 | 51 | 300 | 0.9 | 2.6 | 0.00 | 0.00 | 0.00 | 65 | 1010.8 |
| 20260503042503 | 50 | 300 | 0.9 | 2.6 | 0.00 | 0.00 | 0.00 | 66 | 1010.8 |
| 20260503042004 | 50 | 300 | 1.7 | 2.6 | 0.00 | 0.00 | 0.00 | 68 | 1010.8 |
| 20260503041504 | 50 | 281 | 0.0 | 0.9 | 0.00 | 0.00 | 0.00 | 67 | 1010.8 |
| 20260503041004 | 51 | 313 | 0.0 | 1.7 | 0.00 | 0.00 | 0.00 | 67 | 1010.8 |
| 20260503040503 | 51 | 313 | 0.0 | 1.7 | 0.00 | 0.00 | 0.00 | 67 | 1010.7 |
| 20260503040004 | 51 | 313 | 0.0 | 1.7 | 0.00 | 0.00 | 0.00 | 67 | 1010.7 |
| 20260503035503 | 51 | 313 | 0.9 | 2.6 | 0.00 | 0.00 | 0.00 | 67 | 1010.6 |
| 20260503035004 | 51 | 313 | 0.9 | 2.6 | 0.00 | 0.00 | 0.00 | 67 | 1010.5 |
| 20260503034503 | 51 | 313 | 0.9 | 1.7 | 0.00 | 0.00 | 0.00 | 67 | 1010.9 |